TimeCDT,TemperatureF,Dew PointF,Humidity,Sea Level PressureIn,VisibilityMPH,Wind Direction,Wind SpeedMPH,Gust SpeedMPH,PrecipitationIn,Events,Conditions,WindDirDegrees,DateUTC
12:56 AM,48.9,36.0,61,30.12,-9999.0,NE,3.5,-,N/A,,Unknown,40,2013-05-17 05:56:00
1:56 AM,51.1,35.1,54,30.12,-9999.0,NE,8.1,-,N/A,,Unknown,40,2013-05-17 06:56:00
2:56 AM,48.9,36.0,61,30.14,-9999.0,ENE,5.8,-,N/A,,Unknown,70,2013-05-17 07:56:00
3:56 AM,50.0,35.1,57,30.14,-9999.0,NE,5.8,-,N/A,,Unknown,50,2013-05-17 08:56:00
4:56 AM,45.0,35.1,68,30.15,-9999.0,Calm,Calm,-,N/A,,Unknown,0,2013-05-17 09:56:00
5:56 AM,48.0,35.1,61,30.15,-9999.0,East,6.9,-,N/A,,Unknown,90,2013-05-17 10:56:00
6:56 AM,41.0,35.1,79,30.18,-9999.0,ENE,9.2,-,N/A,,Unknown,70,2013-05-17 11:56:00
7:56 AM,41.0,35.1,79,30.22,-9999.0,ENE,5.8,-,N/A,,Unknown,60,2013-05-17 12:56:00
8:56 AM,43.0,35.1,74,30.20,-9999.0,ENE,6.9,-,N/A,,Unknown,70,2013-05-17 13:56:00
9:56 AM,46.0,36.0,68,30.20,-9999.0,ENE,9.2,-,N/A,,Unknown,60,2013-05-17 14:56:00
10:56 AM,44.1,36.0,73,30.20,-9999.0,ENE,11.5,-,N/A,,Unknown,60,2013-05-17 15:56:00
11:56 AM,45.0,36.0,71,30.20,-9999.0,ENE,10.4,-,N/A,,Unknown,60,2013-05-17 16:56:00
12:56 PM,45.0,36.0,71,30.19,-9999.0,ENE,9.2,-,N/A,,Unknown,70,2013-05-17 17:56:00
1:56 PM,44.1,36.0,73,30.17,-9999.0,ENE,10.4,-,N/A,,Unknown,70,2013-05-17 18:56:00
2:56 PM,48.0,36.0,63,30.16,-9999.0,ENE,12.7,19.6,N/A,,Unknown,60,2013-05-17 19:56:00
3:56 PM,46.0,36.0,68,30.14,-9999.0,ENE,9.2,-,N/A,,Unknown,60,2013-05-17 20:56:00
4:56 PM,48.0,37.0,66,30.14,-9999.0,ENE,11.5,-,N/A,,Unknown,60,2013-05-17 21:56:00
5:56 PM,46.0,36.0,68,30.12,-9999.0,ENE,12.7,-,N/A,,Unknown,70,2013-05-17 22:56:00
6:56 PM,46.9,36.0,66,30.12,-9999.0,ENE,12.7,-,N/A,,Unknown,60,2013-05-17 23:56:00
7:56 PM,48.0,36.0,63,30.12,-9999.0,ENE,12.7,19.6,N/A,,Unknown,60,2013-05-18 00:56:00
8:56 PM,45.0,36.0,71,30.13,-9999.0,ENE,10.4,-,N/A,,Unknown,60,2013-05-18 01:56:00
9:56 PM,46.0,37.0,71,30.12,-9999.0,ENE,5.8,-,N/A,,Unknown,60,2013-05-18 02:56:00
10:56 PM,44.1,35.1,71,30.12,-9999.0,ENE,16.1,21.9,N/A,,Unknown,60,2013-05-18 03:56:00
11:56 PM,50.0,35.1,57,30.09,-9999.0,ENE,9.2,-,N/A,,Unknown,60,2013-05-18 04:56:00